Time,TemperatureF,DewpointF,PressureIn,WindDirection,WindDirectionDegrees,WindSpeedMPH,WindSpeedGustMPH,Humidity,HourlyPrecipIn,Conditions,Clouds,dailyrainin,SoftwareType,DateUTC
2013-02-24 01:22:00,43.0,-99.9,-100.00,NE,39,1.0,2.0,-999,-99.99,,,-99.99,,2013-02-24 08:22:00,
2013-02-24 03:22:00,36.0,-99.9,-100.00,NE,38,1.0,3.0,-999,-99.99,,,-99.99,,2013-02-24 10:22:00,
2013-02-24 03:50:00,35.0,-99.9,-100.00,SSE,167,0.0,1.0,-999,-99.99,,,-99.99,,2013-02-24 10:50:00,
2013-02-24 04:32:00,35.0,-99.9,-100.00,SSE,167,0.0,1.0,-999,-99.99,,,-99.99,,2013-02-24 11:32:00,
2013-02-24 04:42:00,35.0,-99.9,-100.00,SSE,167,0.0,1.0,-999,-99.99,,,-99.99,,2013-02-24 11:42:00,
2013-02-24 05:02:00,32.0,-99.9,-100.00,NW,314,0.0,1.0,-999,-99.99,,,-99.99,,2013-02-24 12:02:00,
2013-02-24 05:33:00,35.0,-99.9,-100.00,North,357,1.0,2.0,-999,-99.99,,,-99.99,,2013-02-24 12:33:00,
2013-02-24 05:45:00,35.0,-99.9,-100.00,NW,315,1.0,2.0,-999,-99.99,,,-99.99,,2013-02-24 12:45:00,
2013-02-24 05:46:00,35.0,-99.9,-100.00,North,357,1.0,2.0,-999,-99.99,,,-99.99,,2013-02-24 12:46:00,
2013-02-24 06:20:00,33.0,-99.9,-100.00,NNW,335,0.0,0.0,-999,-99.99,,,-99.99,,2013-02-24 13:20:00,
2013-02-24 06:36:00,35.0,-99.9,-100.00,NW,315,1.0,2.0,-999,-99.99,,,-99.99,,2013-02-24 13:36:00,
2013-02-24 06:56:00,36.0,-99.9,-100.00,WNW,282,0.0,2.0,-999,-99.99,,,-99.99,,2013-02-24 13:56:00,
2013-02-24 07:05:00,33.0,-99.9,-100.00,NNW,335,0.0,0.0,-999,-99.99,,,-99.99,,2013-02-24 14:05:00,
2013-02-24 08:24:00,43.0,-99.9,-100.00,NW,322,2.0,3.0,-999,-99.99,,,-99.99,,2013-02-24 15:24:00,
2013-02-24 08:32:00,43.0,-99.9,-100.00,NW,322,2.0,3.0,-999,-99.99,,,-99.99,,2013-02-24 15:32:00,
2013-02-24 09:02:00,54.0,-99.9,-100.00,NNE,20,0.0,2.0,-999,-99.99,,,-99.99,,2013-02-24 16:02:00,
2013-02-24 10:53:00,69.0,-99.9,-100.00,NE,56,2.0,3.0,-999,-99.99,,,-99.99,,2013-02-24 17:53:00,
2013-02-24 13:22:00,67.0,-99.9,-100.00,NE,54,1.0,9.0,-999,-99.99,,,-99.99,,2013-02-24 20:22:00,
2013-02-24 13:32:00,67.0,-99.9,-100.00,NE,54,1.0,9.0,-999,-99.99,,,-99.99,,2013-02-24 20:32:00,
2013-02-24 13:50:00,58.0,-99.9,-100.00,NE,44,8.0,11.0,-999,-99.99,,,-99.99,,2013-02-24 20:50:00,
2013-02-24 14:32:00,58.0,-99.9,-100.00,NE,44,8.0,11.0,-999,-99.99,,,-99.99,,2013-02-24 21:32:00,
2013-02-24 14:40:00,57.0,-99.9,-100.00,East,86,6.0,9.0,-999,-99.99,,,-99.99,,2013-02-24 21:40:00,
2013-02-24 14:42:00,58.0,-99.9,-100.00,NE,44,8.0,11.0,-999,-99.99,,,-99.99,,2013-02-24 21:42:00,
2013-02-24 15:22:00,57.0,-99.9,-100.00,East,86,6.0,9.0,-999,-99.99,,,-99.99,,2013-02-24 22:22:00,
2013-02-24 15:32:00,57.0,-99.9,-100.00,East,86,6.0,9.0,-999,-99.99,,,-99.99,,2013-02-24 22:32:00,
2013-02-24 16:02:00,48.0,-99.9,-100.00,NE,46,11.0,11.0,-999,-99.99,,,-99.99,,2013-02-24 23:02:00,
2013-02-24 16:11:00,48.0,-99.9,-100.00,NE,46,11.0,11.0,-999,-99.99,,,-99.99,,2013-02-24 23:11:00,
2013-02-24 16:20:00,47.0,-99.9,-100.00,NE,37,9.0,13.0,-999,-99.99,,,-99.99,,2013-02-24 23:20:00,
2013-02-24 16:22:00,48.0,-99.9,-100.00,NE,46,11.0,11.0,-999,-99.99,,,-99.99,,2013-02-24 23:22:00,
2013-02-24 17:02:00,47.0,-99.9,-100.00,NE,37,9.0,13.0,-999,-99.99,,,-99.99,,2013-02-25 00:02:00,
2013-02-24 17:11:00,47.0,-99.9,-100.00,NE,37,9.0,13.0,-999,-99.99,,,-99.99,,2013-02-25 00:11:00,
2013-02-24 18:50:00,37.0,-99.9,-100.00,ENE,68,6.0,11.0,-999,-99.99,,,-99.99,,2013-02-25 01:50:00,
2013-02-24 19:30:00,35.0,-99.9,-100.00,ENE,63,8.0,8.0,-999,-99.99,,,-99.99,,2013-02-25 02:30:00,
2013-02-24 19:32:00,37.0,-99.9,-100.00,ENE,68,6.0,11.0,-999,-99.99,,,-99.99,,2013-02-25 02:32:00,
2013-02-24 19:42:00,37.0,-99.9,-100.00,ENE,68,6.0,11.0,-999,-99.99,,,-99.99,,2013-02-25 02:42:00,
2013-02-24 20:02:00,35.0,-99.9,-100.00,ENE,63,8.0,8.0,-999,-99.99,,,-99.99,,2013-02-25 03:02:00,
2013-02-24 20:11:00,35.0,-99.9,-100.00,ENE,63,8.0,8.0,-999,-99.99,,,-99.99,,2013-02-25 03:11:00,
2013-02-24 20:21:00,35.0,-99.9,-100.00,ENE,63,8.0,8.0,-999,-99.99,,,-99.99,,2013-02-25 03:21:00,
2013-02-24 21:40:00,32.0,-99.9,-100.00,NE,41,7.0,8.0,-999,-99.99,,,-99.99,,2013-02-25 04:40:00,
2013-02-24 22:22:00,32.0,-99.9,-100.00,NE,41,7.0,8.0,-999,-99.99,,,-99.99,,2013-02-25 05:22:00,
2013-02-24 22:32:00,32.0,-99.9,-100.00,NE,41,7.0,8.0,-999,-99.99,,,-99.99,,2013-02-25 05:32:00,
2013-02-24 23:52:00,31.0,-99.9,-100.00,ENE,59,6.0,6.0,-999,-99.99,,,-99.99,,2013-02-25 06:52:00,